Showing default

QIANFAN-32, 61565

Orbit data source: Space-Track

QIANFAN-32, 61565 is a Chinese payload satellite in LEO that was launched on Tue, 15 Oct 2024 UTC via a CHANG ZHENG 6A launch vehicle from the Taiyaun Space Center, China (TSC). Payload-class satellites include a variety of spacecraft equipped with specific instruments for various scientific and technological missions. These include communications satellites like Starlink; space stations such as the ISS; scientific satellites like the Hubble; Earth observation satellites from companies like Planet Labs, Umbra, and HawkEye 360; GPS; miniature CubeSats for education and research; and military/defense satellites.

Loading next visibility...
Identifier
61565, 2024-185P
Orbit
LEO
Country
Flag of CNCN / PRC
Related business
Manufacturer
GESIH/SECM
Mission
Operational Commercial Communications
Bus & Motor
QIANFAN, Unknown motor
Mass
267 kg wet, ~267 kg dry
Launch date (UTC)
2024-10-15 (11 months ago)
Launch vehicle
CHANG ZHENG 6A
Launch site
Taiyaun Space Center, China (TSC)
Object type
Payload
Rocket body
Debris
Shape & HBR
Box + 1 Pan, 5.0 m
Radar Cross Section
13.200 m², Large (>1 m²)

Expand to show TLE details & history
Last TLE update: 10 hours ago

TLE from 10 hours ago
0 QIANFAN-32
1 61565U 24185P   25260.89902519  .00000180  00000-0  26083-3 0  9992
2 61565  88.9784  89.7883 0008076 319.3282  40.7265 13.50696408 56457
Epoch: 2025-09-17T21:34Z
TLE epoch observation values (Epoch: 2025-09-17T21:34:35.776Z)
Latitude
-0.00003°
Longitude
129.07087°
Altitude
1,068.093 km
Speed
7.32 km/s
True Right ascension
05h 59m 09s
True Declination
0° 00' 00"
Sunlit
Object was in daylight at epoch
Visualization orbit readout
Latitude
Unknown
Longitude
Unknown
Altitude
Unknown
Speed
Unknown
Apparent Right ascension
Unknown
Apparent Declination
Unknown
Sunlit
N/A
Visualization observer readout
Local Sidereal Time
23:54:55
Azimuth
Unknown
Elevation
Unknown
Doppler factor
Unknown
Orbital elements
Apogee altitude
1,072.761 km
Perigee altitude
1,060.737 km
Semi-major axis
7,444.886 km
Eccentricity
0.00081
Inclination
88.9784°
RAAN
89.7883°
Arg. of periapsis
319.3282°
True anomaly
40.78693°
Mean anomaly
40.7265°
Eccentric anomaly
40.75671°
Mean motion
3.37875 °/min
Orbital period
106.55 mins
BSTAR
0.00026083
Loading maneuver chart data...
Computing Atmospheric mass density...
Loading historical data...
Loading historical data...
Loading historical data...
Loading historical data...
Loading historical data...
Loading historical data...
Loading historical data...

Documentation

Showing up to 5 results
|